Weather History for Holdrege, NE

Change the Weather History Date:

Tuesday, January 21, 2014

  Actual Average Record
Temperature  
Mean Temperature 20 °F -  
Max Temperature 40 °F 34 °F 66 °F (1950)
Min Temperature 1 °F 15 °F -12 °F (1966)
Degree Days  
Heating Degree Days 44    
Moisture  
Dew Point 6 °F    
Average Humidity 56    
Maximum Humidity 76    
Minimum Humidity 34    
Precipitation  
Precipitation 0.00 in - - ()
Sea Level Pressure  
Sea Level Pressure 30.20 in    
Wind  
Wind Speed 9 mph (WSW)    
Max Wind Speed 20 mph    
Max Gust Speed 28 mph    
Visibility 10 miles    
Events      
Averages and records for this station are not official NWS values.
T = Trace of Precipitation, MM = Missing Value Source: NWS Daily Summary

Daily Weather History Graph

Daily Weather History Graph

Search for Another Location

Airport:

Trip Planner

Search our weather history database for the weather conditions in past years. The results will help you decide how hot, cold, wet, or windy it might be!

Date:

Astronomy

Jan. 21, 2014 Rise Set
Actual Time 7:55 AM CST 5:42 PM CST
Civil Twilight 7:25 AM CST 6:11 PM CST
Nautical Twilight 6:52 AM CST 6:45 PM CST
Astronomical Twilight 6:20 AM CST 7:17 PM CST
Moon 11:18 PM CST (1/21) 10:24 AM CST (1/21)
Length of Visible Light 10h 46m
Length of Day
9h 46m
Waning Gibbous, 74% of the Moon is Illuminated
Jan 21
Waning Gibbous
Jan 23
Last Quarter
Jan 30
New
Feb 6
First Quarter
Feb 14
Full

Hourly Weather History & Observations

Time (CST) Temp. Windchill Dew Point Humidity Pressure Visibility Wind Dir Wind Speed Gust Speed Precip Events Conditions
12:15 AM 10.4 °F -3.3 °F -0.6 °F 61% 30.45 in 10.0 mi North 10.4 mph - N/A   Clear
12:35 AM 9.5 °F -4.4 °F -1.1 °F 62% 30.44 in 10.0 mi North 10.4 mph - N/A   Clear
12:55 AM 9.0 °F -6.6 °F -1.3 °F 63% 30.44 in 10.0 mi North 12.7 mph - N/A   Clear
1:15 AM 8.4 °F -6.5 °F -1.3 °F 65% 30.43 in 10.0 mi North 11.5 mph - N/A   Clear
1:35 AM 7.2 °F -5.4 °F -1.7 °F 67% 30.44 in 10.0 mi North 8.1 mph - N/A   Clear
1:55 AM 7.0 °F -4.5 °F -1.5 °F 68% 30.44 in 10.0 mi North 6.9 mph - N/A   Clear
2:15 AM 6.3 °F -4.1 °F -1.8 °F 69% 30.43 in 10.0 mi North 5.8 mph - N/A   Clear
2:35 AM 6.1 °F -4.3 °F -1.8 °F 70% 30.43 in 10.0 mi NNW 5.8 mph - N/A   Clear
2:55 AM 5.5 °F -5.0 °F -2.4 °F 70% 30.44 in 10.0 mi North 5.8 mph - N/A   Clear
3:15 AM 5.0 °F -5.6 °F -2.2 °F 72% 30.44 in 10.0 mi North 5.8 mph - N/A   Clear
3:35 AM 4.1 °F -3.2 °F -2.9 °F 73% 30.44 in 10.0 mi North 3.5 mph - N/A   Clear
3:55 AM 3.6 °F - -3.1 °F 74% 30.43 in 10.0 mi Calm Calm - N/A   Clear
4:15 AM 3.0 °F - -3.5 °F 74% 30.42 in 10.0 mi Calm Calm - N/A   Clear
4:35 AM 2.5 °F - -4.0 °F 74% 30.41 in 10.0 mi Calm Calm - N/A   Clear
4:55 AM 2.7 °F - -3.5 °F 76% 30.41 in 10.0 mi Calm Calm - N/A   Clear
5:15 AM 1.4 °F - -4.9 °F 75% 30.41 in 10.0 mi Calm Calm - N/A   Clear
5:35 AM 2.1 °F - -4.2 °F 75% 30.42 in 10.0 mi Calm Calm - N/A   Clear
5:55 AM 3.6 °F -5.7 °F -3.3 °F 73% 30.40 in 10.0 mi SW 4.6 mph - N/A   Clear
6:15 AM 3.6 °F -5.7 °F -3.5 °F 73% 30.39 in 10.0 mi WSW 4.6 mph - N/A   Clear
6:35 AM 3.7 °F -5.5 °F -3.1 °F 73% 30.38 in 10.0 mi SW 4.6 mph - N/A   Clear
6:55 AM 3.9 °F -3.4 °F -3.5 °F 71% 30.36 in 10.0 mi South 3.5 mph - N/A   Clear
7:15 AM 3.4 °F -5.9 °F -3.6 °F 73% 30.34 in 10.0 mi SSW 4.6 mph - N/A   Clear
7:35 AM 2.3 °F -5.2 °F -4.7 °F 72% 30.35 in 10.0 mi SSW 3.5 mph - N/A   Clear
7:55 AM 2.3 °F -5.2 °F -4.0 °F 75% 30.34 in 10.0 mi South 3.5 mph - N/A   Clear
8:15 AM 2.7 °F -4.8 °F -4.0 °F 74% 30.33 in 10.0 mi South 3.5 mph - N/A   Clear
8:35 AM 3.9 °F -8.2 °F -2.6 °F 74% 30.31 in 10.0 mi South 6.9 mph - N/A   Clear
8:55 AM 5.9 °F -7.0 °F -1.5 °F 72% 30.30 in 10.0 mi SSE 8.1 mph - N/A   Clear
9:15 AM 8.1 °F -7.0 °F -0.4 °F 68% 30.28 in 10.0 mi South 11.5 mph - N/A   Clear
9:35 AM 9.9 °F -4.7 °F -0.9 °F 62% 30.28 in 10.0 mi South 11.5 mph - N/A   Clear
9:55 AM 10.8 °F -5.0 °F -0.9 °F 59% 30.29 in 10.0 mi SSW 13.8 mph - N/A   Clear
10:15 AM 12.6 °F -1.4 °F -0.0 °F 57% 30.28 in 10.0 mi South 11.5 mph - N/A   Clear
10:35 AM 13.1 °F -0.7 °F 0.9 °F 58% 30.26 in 10.0 mi South 11.5 mph - N/A   Clear
10:55 AM 16.2 °F 2.5 °F 2.1 °F 54% 30.25 in 10.0 mi South 12.7 mph 17.3 mph N/A   Clear
11:15 AM 16.5 °F 2.4 °F 1.4 °F 52% 30.23 in 10.0 mi South 13.8 mph - N/A   Clear
11:35 AM 18.5 °F 4.3 °F 3.6 °F 52% 30.21 in 10.0 mi South 15.0 mph - N/A   Clear
11:55 AM 20.5 °F 5.9 °F 4.1 °F 49% 30.19 in 10.0 mi South 17.3 mph - N/A   Clear
12:15 PM 21.6 °F 6.9 °F 4.5 °F 48% 30.16 in 10.0 mi South 18.4 mph - N/A   Clear
12:35 PM 23.2 °F 9.8 °F 4.5 °F 45% 30.13 in 10.0 mi SSW 16.1 mph 23.0 mph N/A   Clear
12:55 PM 24.6 °F 11.7 °F 5.5 °F 44% 30.12 in 10.0 mi SSW 16.1 mph 27.6 mph N/A   Clear
1:15 PM 25.7 °F 13.1 °F 6.1 °F 43% 30.10 in 10.0 mi SW 16.1 mph 26.5 mph N/A   Clear
1:35 PM 26.8 °F 13.7 °F 6.4 °F 42% 30.07 in 10.0 mi SSW 18.4 mph 24.2 mph N/A   Clear
1:55 PM 28.6 °F 15.6 °F 6.6 °F 39% 30.06 in 10.0 mi SSW 19.6 mph 27.6 mph N/A   Clear
2:15 PM 30.4 °F 19.5 °F 7.7 °F 39% 30.05 in 10.0 mi SW 15.0 mph 23.0 mph N/A   Clear
2:35 PM 32.2 °F 20.7 °F 8.2 °F 37% 30.03 in 10.0 mi SW 18.4 mph 24.2 mph N/A   Clear
2:55 PM 33.8 °F 23.2 °F 9.1 °F 36% 30.02 in 10.0 mi SW 17.3 mph 20.7 mph N/A   Clear
3:15 PM 35.4 °F 24.6 °F 10.4 °F 36% 30.01 in 10.0 mi SW 19.6 mph - N/A   Clear
3:35 PM 36.5 °F 27.8 °F 10.8 °F 35% 30.00 in 10.0 mi SW 13.8 mph 21.9 mph N/A   Clear
3:55 PM 37.6 °F 28.8 °F 11.5 °F 34% 30.00 in 10.0 mi SW 15.0 mph 19.6 mph N/A   Clear
4:15 PM 38.5 °F 29.9 °F 12.4 °F 34% 30.00 in 10.0 mi SW 15.0 mph 19.6 mph N/A   Scattered Clouds
4:35 PM 38.5 °F 31.6 °F 12.4 °F 34% 29.99 in 10.0 mi SW 10.4 mph - N/A   Scattered Clouds
4:55 PM 38.7 °F 31.4 °F 12.4 °F 34% 29.98 in 10.0 mi SSW 11.5 mph - N/A   Scattered Clouds
5:15 PM 38.3 °F 31.4 °F 12.7 °F 35% 29.97 in 10.0 mi SW 10.4 mph - N/A   Scattered Clouds
5:35 PM 37.0 °F 29.8 °F 12.6 °F 37% 29.98 in 10.0 mi SW 10.4 mph - N/A   Clear
5:55 PM 35.6 °F 27.5 °F 12.7 °F 39% 29.97 in 10.0 mi SW 11.5 mph - N/A   Clear
6:15 PM 35.6 °F 27.5 °F 12.9 °F 39% 29.98 in 10.0 mi SW 11.5 mph - N/A   Clear
6:35 PM 34.7 °F 28.1 °F 12.7 °F 40% 29.99 in 10.0 mi WSW 8.1 mph - N/A   Clear
6:55 PM 35.1 °F 29.3 °F 13.5 °F 41% 30.00 in 10.0 mi West 6.9 mph - N/A   Clear
7:15 PM 37.8 °F 31.3 °F 14.9 °F 39% 30.01 in 10.0 mi NW 9.2 mph 18.4 mph N/A   Clear
7:35 PM 37.4 °F 28.9 °F 17.1 °F 44% 30.01 in 10.0 mi NNW 13.8 mph - N/A   Clear
7:55 PM 40.3 °F 32.2 °F 20.1 °F 45% 30.03 in 10.0 mi NNW 15.0 mph 20.7 mph N/A   Clear
8:15 PM 40.1 °F 32.7 °F 20.8 °F 46% 30.04 in 10.0 mi North 12.7 mph 20.7 mph N/A   Clear
8:35 PM 38.8 °F 30.8 °F 21.0 °F 49% 30.05 in 10.0 mi North 13.8 mph - N/A   Clear
8:55 PM 38.5 °F 30.7 °F 21.2 °F 50% 30.06 in 10.0 mi North 12.7 mph - N/A   Mostly Cloudy
9:15 PM 39.7 °F 30.9 °F 21.9 °F 49% 30.07 in 10.0 mi North 17.3 mph 25.3 mph N/A   Overcast
9:35 PM 39.6 °F 30.0 °F 21.9 °F 49% 30.07 in 10.0 mi North 19.6 mph 25.3 mph N/A   Overcast
9:55 PM 39.2 °F 30.2 °F 22.1 °F 50% 30.07 in 10.0 mi North 17.3 mph - N/A   Overcast
10:15 PM 37.9 °F 29.6 °F 22.1 °F 53% 30.07 in 10.0 mi North 13.8 mph 23.0 mph N/A   Overcast
10:35 PM 36.9 °F 29.6 °F 21.9 °F 55% 30.07 in 10.0 mi North 10.4 mph - N/A   Overcast
10:55 PM 34.9 °F 27.7 °F 21.2 °F 57% 30.08 in 10.0 mi NNW 9.2 mph - N/A   Mostly Cloudy
11:15 PM 35.2 °F 27.1 °F 21.6 °F 58% 30.08 in 10.0 mi NNW 11.5 mph 19.6 mph N/A   Scattered Clouds
11:35 PM 34.7 °F 27.5 °F 21.6 °F 59% 30.10 in 10.0 mi NNW 9.2 mph 16.1 mph N/A   Clear
11:55 PM 33.3 °F 25.7 °F 21.0 °F 61% 30.09 in 10.0 mi NNW 9.2 mph - N/A   Clear